Location: Catacaguana
(10.4120°N, 66.7591°W)
Time: 04:39:09
(UTC+00:00)

Resurs 01 Rocket - Pass Details

Date: 27 May 2022
Orbit: 635 x 642 km, 97.9° (Epoch: 26 June)

Event Time Altitude Azimuth Distance (km) Brightness Sun altitude
Exits shadow 01:01:52 12° 11° (NNE) 1,908 4.3 -31.1°
Drops below altitude 10° 01:02:09 10° 10° (N) 2,012 4.4 -31.2°
Sets 01:04:28 0° 2° (N) 2,919 5.4 -31.6°
